Weather History for EHEH - March, 2014

Change the Weather History Date:

Thursday, March 13, 2014

  Actual Average Record
Temperature  
Mean Temperature 48 °F -  
Max Temperature 66 °F 53 °F 66 °F (2014)
Min Temperature 30 °F 37 °F 10 °F (2013)
Degree Days  
Heating Degree Days 17    
Moisture  
Dew Point 37 °F    
Average Humidity 75    
Maximum Humidity 100    
Minimum Humidity 25    
Precipitation  
Precipitation 0.00 in - - ()
Sea Level Pressure  
Sea Level Pressure 30.37 in    
Wind  
Wind Speed 2 mph ()    
Max Wind Speed 7 mph    
Max Gust Speed -    
Visibility 3.5 miles    
Events Fog    
Averages and records for this station are not official NWS values.
T = Trace of Precipitation, MM = Missing Value Source: Averaged Metar Reports

Daily Weather History Graph

Daily Weather History Graph

Search for Another Location

Airport or City:

Trip Planner

Search our weather history database for the weather conditions in past years. The results will help you decide how hot, cold, wet, or windy it might be!

Date:

Astronomy

Mar. 13, 2014 Rise Set
Actual Time 6:57 AM CET 6:39 PM CET
Civil Twilight 6:24 AM CET 7:12 PM CET
Nautical Twilight 5:45 AM CET 7:51 PM CET
Astronomical Twilight 5:05 AM CET 8:31 PM CET
Moon 3:35 PM CET (3/13) 5:12 AM CET (3/13)
Length of Visible Light 12h 48m
Length of Day
11h 41m
Waxing Gibbous, 90% of the Moon is Illuminated
Mar 13
Waxing Gibbous
Mar 16
Full
Mar 24
Last Quarter
Mar 30
New
Apr 7
First Quarter

Hourly Weather History & Observations

Time (CET) Temp. Windchill Dew Point Humidity Pressure Visibility Wind Dir Wind Speed Gust Speed Precip Events Conditions
12:00 AM 38 °F - 36 °F 87% 30.40 in 3 mi North 2.2 mph - -   Mist
12:15 AM 39.2 °F - 35.6 °F 87% 30.39 in - North 1.2 mph - N/A   Mist
12:25 AM 37.4 °F - 35.6 °F 93% 30.39 in 2.5 mi North 1.2 mph - N/A   Mist
12:38 AM 39.2 °F - 35.6 °F 87% 30.39 in - NNW 1.2 mph - N/A   Mist
12:55 AM 37.4 °F - 35.6 °F 93% 30.39 in - NNW 2.3 mph - N/A   Mist
1:00 AM 37 °F - 36 °F 93% 30.40 in 2 mi NNW 2.2 mph - -   Mist
1:00 AM 37.4 °F - 35.6 °F 93% 30.39 in - NNW 2.3 mph - N/A   Mist
1:12 AM 37.4 °F - 35.6 °F 93% 30.39 in - North 1.2 mph - N/A   Mist
1:25 AM 35.6 °F - 33.8 °F 93% 30.39 in - ENE 1.2 mph - N/A   Mist
1:26 AM 37.4 °F - 35.6 °F 93% 30.39 in 3.1 mi Calm Calm - N/A   Mist
1:34 AM 37.4 °F - 35.6 °F 93% 30.39 in - Calm Calm - N/A   Partly Cloudy
1:41 AM 37.4 °F - 35.6 °F 93% 30.39 in 3.1 mi Calm Calm - N/A   Mist
1:45 AM 35.6 °F - 35.6 °F 100% 30.39 in - Calm Calm - N/A   Mist
1:55 AM 35.6 °F - 35.6 °F 100% 30.36 in - Calm Calm - N/A   Mist
1:59 AM 35.6 °F - 35.6 °F 100% 30.36 in - Calm Calm - N/A   Mist
2:00 AM 36 °F - 35 °F 94% 30.39 in 3 mi Calm Calm - -   Mist
2:11 AM 35.6 °F - 35.6 °F 100% 30.36 in 2.2 mi Calm Calm - N/A   Mist
2:15 AM 35.6 °F - 35.6 °F 100% 30.36 in - Calm Calm - N/A   Partly Cloudy
2:25 AM 35.6 °F - 35.6 °F 100% 30.36 in - Calm Calm - N/A   Mist
2:55 AM 35.6 °F - 33.8 °F 93% 30.36 in 1.8 mi Calm Calm - N/A   Mist
3:00 AM 35 °F - 34 °F 94% 30.38 in 1 mi Calm Calm - -   Mist
3:19 AM 35.6 °F - 33.8 °F 93% 30.36 in 3.1 mi Calm Calm - N/A   Mist
3:25 AM 35.6 °F - 33.8 °F 93% 30.36 in - Calm Calm - N/A   Mist
3:26 AM 35.6 °F - 33.8 °F 93% 30.36 in - Calm Calm - N/A   Mist
3:37 AM 33.8 °F - 33.8 °F 100% 30.36 in - SW 1.2 mph - N/A   Partly Cloudy
3:43 AM 33.8 °F - 33.8 °F 100% 30.36 in 1.7 mi WSW 1.2 mph - N/A   Partly Cloudy
3:55 AM 33.8 °F - 33.8 °F 100% 30.36 in - Calm Calm - N/A   Mist
4:00 AM 34 °F - 34 °F 99% 30.38 in 1 mi Calm Calm - -   Mist
4:15 AM 33.8 °F - 33.8 °F 100% 30.36 in 0.7 mi North 2.3 mph - N/A   Mist
4:25 AM 33.8 °F - 32.0 °F 93% 30.36 in 1.2 mi North 2.3 mph - N/A   Mist
4:38 AM 33.8 °F - 32.0 °F 93% 30.36 in 1.5 mi North 1.2 mph - N/A   Mist
4:47 AM 33.8 °F - 32.0 °F 93% 30.36 in - Calm Calm - N/A   Mist
4:55 AM 33.8 °F - 32.0 °F 93% 30.36 in 3.1 mi Calm Calm - N/A   Mist
4:59 AM 33.8 °F - 33.8 °F 100% 30.36 in 1.8 mi Calm Calm - N/A   Mist
5:00 AM 33 °F - 33 °F 99% 30.38 in 2 mi Calm Calm - - Fog Fog
5:25 AM 32.0 °F - 32.0 °F 100% 30.36 in 1.9 mi WSW 1.2 mph - N/A   Mist
5:55 AM 32.0 °F - 32.0 °F 100% 30.36 in 1.4 mi WSW 1.2 mph - N/A   Mist
6:00 AM 32 °F - 32 °F 100% 30.38 in 1 mi WSW 2.2 mph - -   Mist
6:18 AM 32.0 °F - 32.0 °F 100% 30.36 in 1.1 mi WNW 1.2 mph - N/A   Mist
6:25 AM 32.0 °F - 32.0 °F 100% 30.36 in 0.7 mi Calm Calm - N/A   Mist
6:31 AM 32.0 °F - 32.0 °F 100% 30.36 in 1.0 mi Calm Calm - N/A   Mist
6:44 AM 32.0 °F - 32.0 °F 100% 30.36 in 1.6 mi Calm Calm - N/A   Mist
6:55 AM 32.0 °F - 32.0 °F 100% 30.36 in 1.4 mi SW 1.2 mph - N/A   Mist
6:59 AM 32.0 °F - 32.0 °F 100% 30.36 in 0.9 mi WSW 1.2 mph - N/A   Mist
7:00 AM 32 °F - 31 °F 97% 30.39 in 1 mi WSW 2.2 mph - -   Mist
7:00 AM 32.0 °F - 32.0 °F 100% 30.36 in 1.0 mi WSW 1.2 mph - N/A   Mist
7:03 AM 32.0 °F - 32.0 °F 100% 30.36 in 1.2 mi SW 1.2 mph - N/A   Mist
7:16 AM 32.0 °F - 32.0 °F 100% 30.36 in 1.5 mi WSW 1.2 mph - N/A   Mist
7:25 AM 30.2 °F - 30.2 °F 100% 30.36 in 1.1 mi WSW 1.2 mph - N/A   Mist
7:33 AM 32.0 °F - 32.0 °F 100% 30.39 in 0.8 mi WSW 2.3 mph - N/A   Mist
7:37 AM 32.0 °F - 30.2 °F 93% 30.39 in 1.2 mi SW 2.3 mph - N/A   Mist
7:47 AM 32.0 °F - 32.0 °F 100% 30.39 in 1.2 mi SW 2.3 mph - N/A   Mist
7:55 AM 32.0 °F - 32.0 °F 100% 30.39 in 1.2 mi SW 2.3 mph - N/A   Mist
8:00 AM 33 °F - 33 °F 100% 30.40 in 1 mi West 2.2 mph - -   Mist
8:25 AM 35.6 °F - 35.6 °F 100% 30.39 in 1.7 mi NE 1.2 mph - N/A   Partly Cloudy
8:31 AM 37.4 °F - 35.6 °F 93% 30.39 in - Calm Calm - N/A   Mist
8:55 AM 41.0 °F - 39.2 °F 93% 30.39 in - Calm Calm - N/A   Partly Cloudy
9:00 AM 43 °F - 39 °F 82% 30.40 in 2 mi Calm Calm - -   Mist
9:11 AM 44.6 °F - 41.0 °F 87% 30.39 in 2.5 mi SE 1.2 mph - N/A   Mist
9:25 AM 46.4 °F - 41.0 °F 81% 30.39 in - Calm Calm - N/A   Mist
9:37 AM 48.2 °F - 41.0 °F 76% 30.39 in 3.1 mi Calm Calm - N/A   Partly Cloudy
9:50 AM 50.0 °F - 41.0 °F 71% 30.39 in 3.1 mi Calm Calm - N/A   Haze
9:55 AM 51.8 °F - 42.8 °F 71% 30.39 in 3.1 mi SW 1.2 mph - N/A   Haze
10:00 AM 52 °F - 42 °F 59% 30.40 in 3 mi Calm Calm - -   Light Haze
10:25 AM 57.2 °F - 42.8 °F 59% 30.39 in 3.1 mi Calm Calm - N/A   Haze
10:31 AM 57.2 °F - 42.8 °F 59% 30.39 in 3.7 mi WNW 1.2 mph - N/A   Haze
10:55 AM 57.2 °F - 41.0 °F 55% 30.39 in 3.7 mi North 1.2 mph - N/A   Haze
10:59 AM 57.2 °F - 41.0 °F 55% 30.39 in 4.3 mi North 2.3 mph - N/A   Haze
11:00 AM 58 °F - 41 °F 42% 30.40 in 4 mi 2.2 mph - -   Light Haze
11:25 AM 59.0 °F - 42.8 °F 55% 30.39 in 4.3 mi NNE 2.3 mph - N/A   Haze
11:55 AM 60.8 °F - 41.0 °F 48% 30.39 in 4.3 mi NNE 2.3 mph - N/A   Haze
12:00 PM 62 °F - 41 °F 34% 30.40 in 4 mi 2.2 mph - -   Light Haze
12:10 PM 62.6 °F - 39.2 °F 42% 30.39 in 5.0 mi North 2.3 mph - N/A   Haze
12:16 PM 62.6 °F - 39.2 °F 42% 30.39 in 4.3 mi ENE 2.3 mph - N/A   Haze
12:20 PM 62.6 °F - 39.2 °F 42% 30.39 in 5.0 mi NE 3.5 mph - N/A   Haze
12:25 PM 62.6 °F - 39.2 °F 42% 30.39 in 5.0 mi NNE 3.5 mph - N/A   Haze
12:35 PM 62.6 °F - 39.2 °F 42% 30.39 in 5.0 mi North 3.5 mph - N/A   Haze
12:55 PM 62.6 °F - 41.0 °F 45% 30.36 in 5.0 mi NNE 4.6 mph - N/A   Haze
1:00 PM 63 °F - 39 °F 30% 30.39 in 5 mi 4.5 mph - -   Light Haze
1:25 PM 64.4 °F - 41.0 °F 42% 30.36 in 5.0 mi ENE 2.3 mph - N/A   Haze
1:49 PM 64.4 °F - 41.0 °F 42% 30.36 in 4.3 mi East 3.5 mph - N/A   Haze
1:55 PM 64.4 °F - 41.0 °F 42% 30.36 in 5.0 mi SE 2.3 mph - N/A   Haze
2:00 PM 65 °F - 38 °F 25% 30.37 in 5 mi 2.2 mph - -   Light Haze
2:08 PM 66.2 °F - 39.2 °F 37% 30.36 in 5.6 mi WSW 3.5 mph - N/A   Haze
2:25 PM 64.4 °F - 37.4 °F 37% 30.33 in 5.6 mi NW 3.5 mph - N/A   Haze
2:37 PM 64.4 °F - 37.4 °F 37% 30.33 in 5.6 mi NNW 2.3 mph - N/A   Haze
2:55 PM 64.4 °F - 37.4 °F 37% 30.33 in 5.6 mi NW 4.6 mph - N/A   Haze
3:00 PM 65 °F - 39 °F 27% 30.36 in 6 mi NNW 4.5 mph - -   Light Haze
3:25 PM 64.4 °F - 37.4 °F 37% 30.33 in 5.6 mi NNW 4.6 mph - N/A   Haze
3:55 PM 64.4 °F - 37.4 °F 37% 30.33 in 6.2 mi NW 5.8 mph - N/A   Partly Cloudy
4:00 PM 65 °F - 38 °F 25% 30.35 in 6 mi WNW 4.5 mph - -   Scattered Clouds
4:25 PM 64.4 °F - 39.2 °F 40% 30.33 in 6.2 mi North 5.8 mph - N/A   Unknown
4:55 PM 62.6 °F - 41.0 °F 45% 30.33 in 5.6 mi NNW 6.9 mph - N/A   Haze
5:00 PM 63 °F - 40 °F 30% 30.35 in 6 mi NNW 6.7 mph - -   Light Haze
5:25 PM 62.6 °F - 41.0 °F 45% 30.33 in 5.6 mi NNW 6.9 mph - N/A   Haze
5:55 PM 60.8 °F - 39.2 °F 45% 30.33 in 6.2 mi NNW 6.9 mph - N/A   Unknown
6:00 PM 60 °F - 39 °F 35% 30.35 in 6 mi NNW 6.7 mph - -  
6:25 PM 57.2 °F - 39.2 °F 51% 30.33 in 6.2 mi NNW 5.8 mph - N/A   Unknown
6:55 PM 55.4 °F - 39.2 °F 54% 30.33 in 5.6 mi NNW 4.6 mph - N/A   Haze
7:00 PM 55 °F - 40 °F 46% 30.36 in 6 mi NNW 4.5 mph - -   Light Haze
7:25 PM 51.8 °F - 41.0 °F 67% 30.36 in 5.0 mi NNW 4.6 mph - N/A   Haze
7:28 PM 51.8 °F - 41.0 °F 67% 30.36 in 4.3 mi NNW 4.6 mph - N/A   Haze
7:55 PM 51.8 °F - 41.0 °F 67% 30.36 in 4.3 mi North 6.9 mph - N/A   Haze
8:00 PM 51 °F - 42 °F 61% 30.38 in 4 mi North 6.7 mph - -   Light Haze
8:25 PM 50.0 °F - 41.0 °F 71% 30.36 in 3.7 mi North 4.6 mph - N/A   Haze
8:55 PM 46.4 °F 42.9 °F 39.2 °F 76% 30.36 in 3.7 mi NNE 6.9 mph - N/A   Haze
9:00 PM 47 °F - 40 °F 67% 30.39 in 3 mi NNE 6.7 mph - -   Light Haze
9:25 PM 46.4 °F 42.9 °F 39.2 °F 76% 30.36 in 3.7 mi NNE 6.9 mph - N/A   Haze
9:55 PM 44.6 °F 40.7 °F 39.2 °F 81% 30.36 in 3.7 mi North 6.9 mph - N/A   Haze
10:00 PM 46 °F - 39 °F 69% 30.40 in 4 mi North 6.7 mph - -   Light Haze
10:25 PM 44.6 °F 40.7 °F 39.2 °F 81% 30.39 in 4.3 mi North 6.9 mph - N/A   Haze
10:50 PM 44.6 °F 41.4 °F 39.2 °F 81% 30.39 in 3.7 mi North 5.8 mph - N/A   Haze
10:55 PM 44.6 °F 41.4 °F 37.4 °F 76% 30.39 in 4.3 mi North 5.8 mph - N/A   Haze
11:00 PM 43 °F - 37 °F 72% 30.40 in 4 mi North 6.7 mph - -   Light Haze
11:05 PM 42.8 °F 39.3 °F 37.4 °F 81% 30.39 in 5.0 mi North 5.8 mph - N/A   Haze
11:18 PM 42.8 °F 40.1 °F 37.4 °F 81% 30.39 in 5.0 mi North 4.6 mph - N/A   Haze
11:25 PM 42.8 °F 41.1 °F 37.4 °F 81% 30.39 in 5.0 mi North 3.5 mph - N/A   Haze
11:41 PM 41.0 °F 39.0 °F 35.6 °F 81% 30.39 in 4.3 mi North 3.5 mph - N/A   Haze
11:55 PM 41.0 °F - 37.4 °F 87% 30.39 in 4.3 mi NNW 2.3 mph - N/A   Partly Cloudy
11:59 PM 41.0 °F - 37.4 °F 87% 30.39 in 5.0 mi NNW 2.3 mph - N/A   Partly Cloudy